Wind_Speed
17 17 17 18 19 19 19 19 20 21 21 22 22 22 23 24 23 23 23 23 24 25 25 26 26 27 28 29 29 30 31 31 31 32 33 33 34 34
19 19 19 19 20 20 21 22 22 22 23 24 24 25 25 25 26 26 26 27 28 28 28 29 29 30 30 31 31 32 33 33 34 34 35 36 36 36
20 20 21 22 22 22 23 23 24 24 25 25 26 27 27 28 29 29 29 30 31 31 31 31 32 32 33 34 35 36 36 36 37 38 39 39 39 39
21 21 22 23 23 24 24 24 25 26 27 27 28 29 29 30 31 32 32 32 33 33 34 34 35 36 36 37 38 38 39 39 40 41 42 42 43 43
22 23 23 23 24 25 25 25 26 27 28 29 30 31 31 32 32 33 34 34 35 36 37 38 38 39 40 40 40 40 41 41 41 42 43 44 45 45
22 23 25 25 25 26 26 27 28 29 30 31 32 32 32 33 33 34 35 36 37 38 39 40 40 41 41 40 41 42 43 43 43 44 44 45 46 46
23 23 24 25 26 27 27 28 29 29 31 32 32 33 33 34 35 36 37 38 39 39 40 40 41 41 41 42 42 42 42 43 44 45 45 46 47 48
23 24 25 26 26 27 28 29 29 30 31 32 33 33 34 35 36 37 38 39 39 38 39 39 39 40 40 41 42 43 44 45 46 46 47 48 48 49
24 25 26 27 27 28 28 29 30 30 32 33 34 34 34 35 37 38 38 38 38 39 39 39 40 41 42 43 44 45 45 46 47 48 49 50 51 52
25 26 27 27 28 29 29 30 31 32 33 33 34 35 35 36 36 38 39 39 39 40 40 41 42 42 43 44 45 46 47 47 49 50 51 52 53 53
27 28 28 29 29 30 30 31 32 33 33 33 34 35 36 36 37 38 38 39 40 41 41 42 43 44 45 45 46 47 47 48 49 50 51 52 52 52
29 30 30 30 31 31 31 32 32 33 33 34 35 36 36 37 38 39 39 40 41 42 42 43 44 45 46 46 47 47 48 49 49 50 50 51 51 51
29 29 30 30 30 31 32 32 33 34 35 35 36 36 37 38 38 39 39 39 40 41 42 43 44 44 45 45 46 46 47 48 48 48 48 48 48 48
29 29 29 30 30 31 32 33 34 35 36 36 37 37 38 38 39 39 40 41 41 42 42 43 43 43 44 44 45 45 46 46 46 46 46 46 45 45
29 29 29 30 31 32 33 34 35 36 36 37 37 38 38 39 40 41 41 41 42 42 42 41 41 42 43 43 43 43 44 44 44 44 44 43 42 42
29 30 30 31 32 33 34 35 36 36 36 37 37 38 38 39 40 41 41 41 41 41 41 40 41 41 41 40 41 41 41 41 41 41 41 41 41 41
30 30 31 32 33 34 35 36 35 35 36 37 37 37 38 39 40 40 40 39 39 39 39 39 39 39 39 39 39 39 39 39 39 39 39 40 40 40
31 32 33 34 34 35 35 35 35 35 36 37 37 37 37 37 38 38 38 38 37 37 37 38 38 38 38 37 37 37 37 37 38 38 38 39 38 38
32 33 33 34 34 34 34 34 34 34 35 36 36 36 36 37 37 37 37 36 36 36 36 36 36 35 35 36 36 36 36 36 36 36 36 36 36 36
32 32 33 33 33 33 33 33 34 34 34 35 35 35 35 35 35 35 35 35 35 35 34 34 34 34 34 34 34 34 34 34 33 33 33 34 34 34
31 31 32 32 32 32 32 33 33 33 33 34 34 34 34 34 34 34 34 34 33 33 33 33 33 33 32 32 32 32 32 33 33 32 32 32 32 32
30 30 31 31 32 32 33 33 33 33 32 32 32 33 33 33 33 33 32 32 32 31 31 31 31 31 30 30 30 30 31 31 32 32 32 31 31 30
30 30 31 31 32 32 33 32 32 32 31 31 31 31 32 32 32 31 30 30 30 30 30 30 30 30 30 30 30 30 30 30 30 30 31 31 31 30
Wind_Direction
263 264 264 266 267 267 270 272 273 274 277 277 277 278 280 280 279 280 280 281 282 282 282 282 281 280 280 279 280 280 279 278 277 277 277 278 278 276
265 264 264 268 269 270 271 272 273 275 278 279 279 279 280 281 282 281 281 282 283 283 283 282 281 280 280 280 281 281 281 279 278 278 277 278 278 278
266 266 265 267 269 270 271 272 273 275 278 280 280 280 281 279 280 281 281 281 282 283 283 284 283 282 282 281 281 281 282 280 279 278 278 278 278 277
270 270 270 271 271 272 273 274 274 276 278 279 279 279 280 280 280 279 280 281 282 282 283 283 283 283 283 283 281 281 280 280 280 280 279 278 278 277
274 272 273 273 274 275 273 274 275 277 279 280 279 279 279 281 281 281 280 280 282 282 282 282 282 283 283 283 283 282 281 281 282 282 281 281 280 279
277 275 273 274 276 275 275 276 277 279 280 280 279 279 280 283 283 284 284 282 282 282 283 283 282 283 284 283 283 283 283 283 282 282 283 283 282 281
278 278 277 277 279 277 277 279 281 282 282 282 281 280 282 283 284 285 285 285 284 284 284 284 283 283 283 283 283 284 284 284 284 284 284 283 283 282
280 281 282 281 281 279 279 281 283 283 284 284 283 284 286 286 286 285 286 286 285 286 286 286 285 285 284 283 283 283 283 284 284 285 284 284 284 283
281 281 281 280 281 281 281 282 283 283 285 284 284 286 287 286 287 286 286 287 286 286 285 286 286 286 286 285 285 285 285 285 285 285 285 285 285 284
283 284 283 282 283 281 283 284 284 285 285 285 286 287 287 287 288 288 287 287 287 287 286 287 287 288 288 288 288 287 287 288 288 287 286 286 286 285
284 285 284 284 284 284 285 286 286 287 288 289 289 289 289 290 290 291 290 289 288 288 287 288 289 289 290 289 290 290 290 290 289 289 289 289 288 288
284 285 285 285 285 285 287 288 288 288 290 290 290 289 291 292 293 292 291 290 291 289 289 289 290 290 291 290 291 292 292 293 293 292 291 291 291 290
286 286 286 286 287 287 287 287 287 288 290 291 292 292 292 293 293 293 291 291 291 290 290 291 292 293 293 293 293 294 295 295 295 295 294 294 293 293
287 288 288 289 289 289 289 289 290 291 292 293 293 293 294 294 294 293 292 293 293 293 293 293 294 294 294 294 295 296 296 297 296 297 297 296 296 295
287 289 289 289 290 290 291 291 292 293 293 294 295 295 295 294 294 294 294 295 296 295 295 295 295 296 296 296 297 297 298 298 298 298 298 298 298 297
288 288 289 290 291 292 293 294 295 296 296 296 297 297 296 296 296 297 298 297 297 296 296 296 296 297 298 298 298 298 298 299 299 299 299 299 299 299
288 289 291 292 293 294 294 295 296 297 297 298 297 297 297 298 299 300 299 298 298 298 299 299 300 299 299 299 300 301 301 301 301 301 300 301 301 301
289 291 292 294 295 296 296 296 297 297 298 298 298 299 300 301 302 302 302 301 300 300 301 301 302 302 302 302 303 303 303 303 303 303 303 303 303 302
292 294 295 296 296 297 298 298 298 299 299 299 299 300 301 302 303 303 303 303 303 303 304 304 304 304 305 306 306 306 306 305 304 305 306 306 305 305
294 296 296 296 297 297 298 298 299 299 299 299 300 302 304 305 306 306 306 306 305 305 305 306 306 306 307 308 308 308 308 308 307 307 308 309 309 309
296 297 297 298 298 298 299 299 300 301 300 300 301 303 305 306 307 308 308 307 307 308 308 308 308 309 309 310 311 311 311 311 311 311 312 311 312 312
296 297 297 298 299 299 300 301 301 301 302 302 302 303 305 307 308 308 309 309 310 310 310 310 310 311 311 312 313 313 314 314 315 316 317 317 316 315
296 297 297 298 299 300 300 300 300 301 302 302 303 304 305 307 309 309 310 311 311 311 312 312 313 313 314 315 315 316 316 317 317 318 319 319 319 319
Height
5883 5883 5883 5883 5883 5883 5883 5883 5883 5882 5882 5881 5880 5880 5879 5878 5877 5876 5874 5873 5872 5871 5870 5868 5867 5865 5864 5863 5861 5860 5859 5858 5856 5855 5854 5852 5851 5850
5879 5879 5879 5879 5879 5879 5878 5878 5878 5877 5877 5876 5875 5874 5873 5872 5871 5869 5868 5867 5865 5864 5863 5861 5860 5858 5857 5855 5854 5852 5851 5849 5848 5846 5845 5844 5842 5840
5874 5874 5874 5874 5874 5873 5873 5872 5872 5872 5871 5870 5868 5867 5866 5865 5864 5862 5861 5860 5858 5856 5855 5853 5852 5850 5849 5847 5845 5843 5842 5840 5838 5837 5835 5834 5832 5830
5869 5869 5869 5868 5868 5868 5867 5867 5866 5865 5865 5864 5862 5861 5859 5858 5856 5855 5854 5852 5850 5848 5847 5845 5843 5841 5840 5838 5836 5834 5832 5830 5828 5826 5825 5823 5821 5819
5864 5864 5863 5863 5863 5862 5861 5860 5860 5859 5858 5856 5855 5853 5852 5850 5849 5847 5845 5844 5842 5840 5838 5836 5834 5832 5830 5828 5826 5824 5821 5819 5817 5815 5812 5811 5809 5806
5859 5858 5857 5857 5856 5855 5855 5854 5852 5851 5850 5848 5847 5845 5844 5842 5840 5839 5837 5835 5833 5830 5828 5826 5824 5822 5819 5817 5815 5812 5810 5807 5805 5803 5800 5798 5796 5793
5853 5852 5851 5850 5849 5849 5848 5846 5845 5844 5842 5840 5838 5837 5835 5834 5832 5830 5827 5825 5822 5820 5818 5815 5813 5811 5808 5806 5803 5801 5798 5795 5793 5790 5787 5785 5782 5780
5848 5846 5845 5844 5843 5842 5840 5839 5838 5836 5834 5832 5830 5828 5827 5824 5822 5820 5818 5815 5813 5811 5807 5805 5802 5799 5797 5794 5792 5789 5786 5783 5780 5777 5774 5771 5768 5766
5841 5840 5839 5837 5836 5835 5833 5831 5830 5828 5826 5825 5822 5820 5818 5815 5813 5810 5808 5805 5802 5800 5797 5794 5791 5789 5786 5783 5780 5777 5773 5770 5767 5764 5760 5757 5754 5751
5835 5834 5832 5831 5829 5827 5826 5824 5822 5820 5818 5816 5814 5811 5809 5806 5803 5801 5798 5795 5792 5789 5786 5784 5780 5777 5774 5771 5767 5764 5760 5757 5753 5750 5746 5743 5739 5735
5828 5826 5825 5823 5821 5820 5818 5816 5814 5812 5809 5807 5804 5802 5799 5796 5793 5791 5788 5784 5781 5778 5775 5772 5769 5765 5762 5758 5754 5751 5747 5743 5739 5735 5731 5727 5723 5719
5821 5819 5818 5816 5814 5812 5810 5808 5806 5803 5801 5798 5795 5793 5790 5787 5784 5780 5777 5774 5770 5767 5763 5760 5756 5753 5749 5745 5741 5737 5733 5729 5725 5721 5716 5712 5708 5704
5813 5812 5810 5808 5806 5804 5802 5800 5797 5795 5792 5789 5786 5783 5780 5777 5774 5770 5766 5763 5759 5755 5752 5748 5744 5740 5736 5732 5728 5724 5720 5715 5711 5706 5702 5697 5693 5689
5806 5804 5802 5800 5798 5796 5794 5791 5788 5786 5783 5780 5777 5773 5770 5767 5763 5759 5756 5752 5748 5744 5740 5736 5732 5728 5724 5720 5716 5711 5707 5702 5698 5693 5689 5684 5680 5676
5798 5796 5794 5792 5790 5787 5785 5782 5779 5776 5773 5770 5767 5763 5760 5756 5752 5748 5744 5740 5736 5732 5728 5724 5720 5716 5712 5708 5704 5700 5695 5690 5686 5681 5677 5672 5668 5664
5790 5788 5786 5784 5781 5779 5776 5773 5770 5766 5763 5760 5756 5753 5749 5745 5741 5737 5733 5729 5725 5721 5716 5713 5708 5705 5701 5697 5692 5688 5683 5679 5675 5670 5666 5661 5656 5652
5782 5780 5778 5775 5773 5770 5767 5764 5760 5757 5754 5750 5746 5742 5739 5735 5731 5726 5722 5717 5713 5709 5705 5701 5697 5693 5689 5685 5681 5677 5672 5668 5664 5659 5655 5650 5645 5640
5774 5772 5769 5767 5764 5761 5758 5754 5751 5748 5744 5740 5737 5733 5729 5725 5720 5716 5711 5707 5703 5699 5695 5691 5687 5683 5678 5674 5670 5666 5662 5658 5653 5649 5644 5640 5635 5630
5766 5763 5761 5758 5755 5752 5748 5745 5742 5738 5735 5731 5727 5723 5719 5715 5711 5706 5702 5698 5694 5690 5686 5681 5677 5673 5669 5665 5660 5656 5652 5648 5643 5639 5634 5629 5625 5620
5757 5754 5752 5749 5746 5743 5739 5736 5733 5729 5726 5722 5718 5714 5710 5706 5701 5697 5693 5689 5685 5680 5676 5672 5668 5664 5660 5656 5652 5647 5642 5638 5634 5630 5625 5620 5615 5611
5748 5746 5743 5740 5737 5734 5731 5727 5724 5720 5717 5713 5709 5705 5701 5697 5693 5689 5685 5681 5676 5672 5668 5664 5660 5656 5652 5648 5643 5639 5634 5629 5625 5621 5616 5612 5607 5603
5740 5738 5735 5732 5729 5725 5722 5719 5715 5712 5708 5704 5701 5697 5693 5689 5685 5681 5677 5673 5669 5664 5660 5656 5652 5648 5644 5640 5635 5631 5627 5622 5617 5612 5607 5603 5598 5594
5732 5729 5726 5723 5720 5717 5713 5710 5706 5703 5699 5696 5692 5689 5685 5681 5677 5673 5669 5665 5661 5657 5653 5649 5645 5641 5636 5632 5628 5624 5620 5615 5611 5606 5601 5595 5591 5586